Weather in Vygonichi

Russia / Bryansk Oblast     53°07′44″N   34°05′15″E
temp.,
°C
wind,
m/s
gust,
m/s
humid.,
%
clouds,
%
prec.,
mm/h
press.,
hPa
HPBL,
m
11 april, sun
sun1100:00+4ssw37720 0.0 1026112
03:00+3ssw37740 0.0 1027111
06:00+2ssw34750 0.0 102852
09:00+7ssw34600 0.0 1029264
12:00+12ssw33480 0.0 1029747
15:00+14ssw22420 0.0 10291171
18:00+14ese11500 0.0 102919
21:00+8ese33640 0.0 103022
12 april, mon
mon1200:00+7e33701 0.0 103037
03:00+5ene3474100 0.0 103049
06:00+4ene3978100 0.0 1030172
09:00+8ene61257100 0.0 1029491
12:00+9e5966100 0.0 1027592
15:00+11e4676100 0.6 1026486
18:00+12e4878100 0.0 1025468
21:00+10ne3490100 0.0 102458
13 april, tue
tue1300:00+9ene3593100 0.0 102293
03:00+9se3488100 0.0 102248
06:00+9sse2286100 0.0 102224
09:00+13se367298 0.0 1022222
12:00+18se5756100 0.0 10211089
15:00+19se5851100 0.0 10211614
18:00+17sse4860100 0.1 1020324
21:00+13se3674100 0.4 1020103
14 april, wed
wed1400:00+12s2485100 0.0 102076
03:00+11sse2590100 0.1 1019116
06:00+10sse2593100 0.0 1019125
09:00+12sse348497 0.0 1019348
12:00+15sse4668100 0.8 1018721
15:00+14sse3573100 1.8 1017323
18:00+14s3676100 1.1 1016267
21:00+11ese2588100 4.8 1016189
15 april, thu
thu1500:00+9se3693100 0.0 1016266
03:00+9sse3695100 0.5 1016284
06:00+9sse379743 2.3 1016266
09:00+12ssw348184 2.3 1016363
12:00+14sse2363100 1.1 1015788
15:00+16se015418 2.1 10141309
18:00+15ene236482 0.9 1013342
21:00+12ese2280100 2.0 101421